EN

Hourly Weather Lahteevo

Today, 1 August, Sunday

Time Temperature Precipitation Wind Pressure Humidity
00:00 +18°C° 0 mm 2 mps 738 mmHg 70%
01:00 +18°C° 0 mm 2 mps 738 mmHg 70%
02:00 +18°C° 0 mm 3 mps 737 mmHg 70%
03:00 +18°C° 0.3 mm 3 mps 737 mmHg 77%
04:00 +18°C° 0.3 mm 3 mps 737 mmHg 84%
05:00 +17°C° 0.3 mm 3 mps 737 mmHg 91%
06:00 +18°C° 0.1 mm 3 mps 737 mmHg 92%
07:00 +18°C° 0.1 mm 3 mps 737 mmHg 92%
08:00 +18°C° 0.1 mm 3 mps 737 mmHg 92%
09:00 +20°C° 0 mm 3 mps 737 mmHg 84%
10:00 +22°C° 0 mm 4 mps 738 mmHg 77%
11:00 +23°C° 0 mm 5 mps 738 mmHg 69%
12:00 +25°C° 0.4 mm 5 mps 738 mmHg 68%
13:00 +26°C° 0.4 mm 5 mps 738 mmHg 68%
14:00 +26°C° 0.4 mm 5 mps 738 mmHg 67%
15:00 +26°C° 0.4 mm 4 mps 738 mmHg 67%
16:00 +26°C° 0.4 mm 3 mps 737 mmHg 66%
17:00 +26°C° 0.4 mm 3 mps 737 mmHg 66%
18:00 +25°C° 0 mm 2 mps 737 mmHg 68%
19:00 +23°C° 0 mm 2 mps 737 mmHg 71%
20:00 +22°C° 0 mm 1 mps 737 mmHg 74%
21:00 +21°C° 0 mm 1 mps 737 mmHg 75%
22:00 +20°C° 0 mm 1 mps 737 mmHg 75%
23:00 +18°C° 0 mm 0 mps 737 mmHg 75%

Tomorrow, 2 August, Monday

Time Temperature Precipitation Wind Pressure Humidity
00:00 +19°C° 0 mm 1 mps 737 mmHg 78%
01:00 +18°C° 0 mm 2 mps 737 mmHg 81%
02:00 +18°C° 0 mm 2 mps 737 mmHg 83%
03:00 +18°C° 0.1 mm 2 mps 737 mmHg 87%
04:00 +18°C° 0.1 mm 2 mps 736 mmHg 90%
05:00 +18°C° 0.1 mm 2 mps 736 mmHg 94%
06:00 +19°C° 0.1 mm 3 mps 736 mmHg 90%
07:00 +21°C° 0.1 mm 3 mps 735 mmHg 86%
08:00 +23°C° 0.1 mm 4 mps 735 mmHg 82%
09:00 +23°C° 0.6 mm 4 mps 735 mmHg 82%
10:00 +23°C° 0.6 mm 4 mps 734 mmHg 82%
11:00 +23°C° 0.6 mm 5 mps 734 mmHg 82%
12:00 +26°C° 0.6 mm 5 mps 734 mmHg 75%
13:00 +27°C° 0.6 mm 5 mps 733 mmHg 69%
14:00 +28°C° 0.6 mm 6 mps 733 mmHg 62%
15:00 +28°C° 1 mm 5 mps 732 mmHg 66%
16:00 +27°C° 1 mm 5 mps 732 mmHg 70%
17:00 +26°C° 1 mm 4 mps 732 mmHg 73%
18:00 +23°C° 0.6 mm 4 mps 732 mmHg 80%
19:00 +21°C° 0.6 mm 3 mps 732 mmHg 86%
20:00 +20°C° 0.6 mm 3 mps 732 mmHg 92%
21:00 +19°C° 0.1 mm 4 mps 732 mmHg 93%
22:00 +18°C° 0.1 mm 4 mps 733 mmHg 95%
23:00 +17°C° 0.1 mm 5 mps 733 mmHg 96%

Day after tomorrow, 3 August, Tuesday

Time Temperature Precipitation Wind Pressure Humidity
00:00 +16°C° 0.1 mm 5 mps 734 mmHg 96%
01:00 +15°C° 0.1 mm 5 mps 734 mmHg 96%
02:00 +15°C° 0.1 mm 5 mps 735 mmHg 95%
03:00 +15°C° 0 mm 4 mps 735 mmHg 95%
04:00 +15°C° 0 mm 4 mps 736 mmHg 96%
05:00 +14°C° 0 mm 3 mps 736 mmHg 96%
06:00 +15°C° 0 mm 4 mps 737 mmHg 92%
07:00 +17°C° 0 mm 4 mps 737 mmHg 88%
08:00 +17°C° 0 mm 5 mps 738 mmHg 85%
09:00 +19°C° 0 mm 5 mps 738 mmHg 74%
10:00 +20°C° 0 mm 5 mps 738 mmHg 64%
11:00 +21°C° 0 mm 5 mps 739 mmHg 53%
12:00 +21°C° 0 mm 5 mps 739 mmHg 51%
13:00 +22°C° 0 mm 5 mps 739 mmHg 49%
14:00 +22°C° 0 mm 5 mps 739 mmHg 47%
15:00 +22°C° 0 mm 5 mps 739 mmHg 49%
16:00 +22°C° 0 mm 4 mps 739 mmHg 51%
17:00 +21°C° 0 mm 4 mps 739 mmHg 53%
18:00 +20°C° 0 mm 3 mps 739 mmHg 58%
19:00 +19°C° 0 mm 3 mps 740 mmHg 62%
20:00 +17°C° 0 mm 3 mps 740 mmHg 66%
21:00 +16°C° 0 mm 2 mps 740 mmHg 71%
22:00 +15°C° 0 mm 2 mps 740 mmHg 77%
23:00 +15°C° 0 mm 2 mps 741 mmHg 82%

4 August, Wednesday

Time Temperature Precipitation Wind Pressure Humidity
00:00 +14°C° 0 mm 2 mps 741 mmHg 85%
01:00 +14°C° 0 mm 2 mps 741 mmHg 89%
02:00 +13°C° 0 mm 2 mps 741 mmHg 93%
03:00 +13°C° 0 mm 2 mps 742 mmHg 93%
04:00 +13°C° 0 mm 2 mps 742 mmHg 94%
05:00 +13°C° 0 mm 2 mps 742 mmHg 94%
06:00 +15°C° 0 mm 2 mps 742 mmHg 87%
07:00 +17°C° 0 mm 2 mps 743 mmHg 80%
08:00 +19°C° 0 mm 2 mps 743 mmHg 72%
09:00 +19°C° 0.3 mm 3 mps 743 mmHg 70%
10:00 +20°C° 0.3 mm 3 mps 743 mmHg 69%
11:00 +21°C° 0.3 mm 3 mps 743 mmHg 67%
12:00 +21°C° 0.9 mm 3 mps 743 mmHg 67%
13:00 +21°C° 0.9 mm 3 mps 743 mmHg 67%
14:00 +22°C° 0.9 mm 3 mps 743 mmHg 68%
15:00 +23°C° 0.4 mm 2 mps 743 mmHg 66%
16:00 +23°C° 0.4 mm 2 mps 743 mmHg 65%
17:00 +23°C° 0.4 mm 1 mps 743 mmHg 64%
18:00 +21°C° 0.2 mm 1 mps 743 mmHg 69%
19:00 +19°C° 0.2 mm 1 mps 744 mmHg 75%
20:00 +18°C° 0.2 mm 1 mps 744 mmHg 81%
21:00 +16°C° 0 mm 1 mps 744 mmHg 83%
22:00 +16°C° 0 mm 1 mps 744 mmHg 84%
23:00 +16°C° 0 mm 2 mps 743 mmHg 85%

5 August, Thursday

Time Temperature Precipitation Wind Pressure Humidity
00:00 +15°C° 0 mm 2 mps 743 mmHg 87%
01:00 +15°C° 0 mm 2 mps 743 mmHg 88%
02:00 +15°C° 0 mm 2 mps 743 mmHg 89%
03:00 +15°C° 0 mm 2 mps 743 mmHg 89%
04:00 +15°C° 0 mm 2 mps 743 mmHg 88%
05:00 +15°C° 0 mm 2 mps 743 mmHg 88%
06:00 +15°C° 0.2 mm 2 mps 743 mmHg 88%
07:00 +15°C° 0.2 mm 2 mps 743 mmHg 89%
08:00 +15°C° 0.2 mm 2 mps 743 mmHg 89%
09:00 +15°C° 0.8 mm 2 mps 743 mmHg 90%
10:00 +14°C° 0.8 mm 3 mps 742 mmHg 92%
11:00 +14°C° 0.8 mm 4 mps 742 mmHg 93%
12:00 +15°C° 0.2 mm 4 mps 742 mmHg 92%
13:00 +15°C° 0.2 mm 4 mps 741 mmHg 90%
14:00 +17°C° 0.2 mm 4 mps 741 mmHg 88%
15:00 +17°C° 0.1 mm 4 mps 741 mmHg 88%
16:00 +18°C° 0.1 mm 4 mps 740 mmHg 87%
17:00 +19°C° 0.1 mm 4 mps 740 mmHg 87%
18:00 +18°C° 0 mm 4 mps 740 mmHg 88%
19:00 +18°C° 0 mm 4 mps 739 mmHg 90%
20:00 +17°C° 0 mm 4 mps 739 mmHg 92%
21:00 +17°C° 0.1 mm 4 mps 739 mmHg 93%
22:00 +17°C° 0.1 mm 4 mps 738 mmHg 94%
23:00 +17°C° 0.1 mm 4 mps 738 mmHg 94%

6 August, Friday

Time Temperature Precipitation Wind Pressure Humidity
00:00 +17°C° 0.2 mm 4 mps 738 mmHg 95%
01:00 +17°C° 0.2 mm 4 mps 737 mmHg 95%
02:00 +16°C° 0.2 mm 5 mps 737 mmHg 96%
03:00 +17°C° 0.5 mm 4 mps 737 mmHg 96%
04:00 +17°C° 0.5 mm 4 mps 736 mmHg 96%
05:00 +17°C° 0.5 mm 4 mps 736 mmHg 97%
06:00 +18°C° 0.1 mm 4 mps 735 mmHg 93%
07:00 +17°C° 0.1 mm 5 mps 735 mmHg 89%
08:00 +19°C° 0.1 mm 6 mps 735 mmHg 86%
09:00 +20°C° 0.1 mm 6 mps 735 mmHg 81%
10:00 +21°C° 0.1 mm 7 mps 735 mmHg 77%
11:00 +23°C° 0.1 mm 7 mps 734 mmHg 72%
12:00 +23°C° 0.4 mm 7 mps 735 mmHg 75%
13:00 +23°C° 0.4 mm 6 mps 735 mmHg 78%
14:00 +23°C° 0.4 mm 6 mps 735 mmHg 80%
15:00 +22°C° 0.9 mm 5 mps 735 mmHg 84%
16:00 +21°C° 0.9 mm 5 mps 735 mmHg 87%
17:00 +20°C° 0.9 mm 4 mps 735 mmHg 91%
18:00 +19°C° 0.2 mm 3 mps 735 mmHg 92%
19:00 +18°C° 0.2 mm 3 mps 735 mmHg 93%
20:00 +17°C° 0.2 mm 2 mps 736 mmHg 95%
21:00 +16°C° 0 mm 2 mps 736 mmHg 95%
22:00 +16°C° 0 mm 2 mps 736 mmHg 94%
23:00 +15°C° 0 mm 2 mps 736 mmHg 94%
Show more